Terug naar catalogus

BREEZE-M DEB

LostHEO
NORAD 38580·DEBRIS·🇷🇺 Russia

Gelanceerd Mar 14, 2008 vanaf Baikonur Cosmodrome

Loading…

Volgende Passages (komende 24 uur)

TLE

VerouderdSource: Space-Track

Epoch: Aug 17, 2023, 22:31 UTC

1 38580U 08011AB  23229.93878683 -.00000099  00000-0  00000+0 0  9992
2 38580  47.7524 128.2548 6332035 207.2908  96.4290  2.93777912132312

Volg BREEZE-M DEB in realtime met AllMySat

Download on the App Store